This is the latest recevied weather packets stored in our database for station/object WX2NJ. If no packets are shown the sender has not sent any weather packets the latest 10 day(s).
| Time | Temp. | Humidity | Pressure | Rain* | Wind** | Luminosity | Snow |
|---|---|---|---|---|---|---|---|
| 1788156496 | 71° F | 92% | 766.6 mmHg | 0 in | - | 0 W/m² | - |
| 1788156196 | 71° F | 92% | 766.6 mmHg | 0 in | - | 0 W/m² | - |
| 1788155896 | 71° F | 92% | 766.6 mmHg | 0 in | - | 0 W/m² | - |
| 1788155591 | 71° F | 92% | 766.9 mmHg | 0 in | - | 0 W/m² | - |
| 1788155287 | 71° F | 92% | 766.6 mmHg | 0 in | - | 0 W/m² | - |
| 1788154981 | 71° F | 92% | 766.6 mmHg | 0.02 in | - | 0 W/m² | - |
| 1788154681 | 71° F | 92% | 766.6 mmHg | 0.09 in | - | 0 W/m² | - |
| 1788154379 | 71° F | 92% | 766.7 mmHg | 0.12 in | - | 0 W/m² | - |
| 1788154074 | 71° F | 92% | 766.7 mmHg | 0.21 in | - | 0 W/m² | - |
| 1788153773 | 71° F | 92% | 766.7 mmHg | 0.19 in | - | 0 W/m² | - |
| 1788153471 | 71° F | 92% | 766.9 mmHg | 0 in | - | 0 W/m² | - |
| 1788153170 | 71° F | 92% | 766.7 mmHg | 0.02 in | - | 0 W/m² | - |
| 1788152865 | 71° F | 92% | 766.6 mmHg | 0.02 in | - | 0 W/m² | - |
| 1788152564 | 71° F | 92% | 766.5 mmHg | 0 in | - | 0 W/m² | - |
| 1788152258 | 71° F | 92% | 766.7 mmHg | 0 in | - | 0 W/m² | - |
| 1788151953 | 71° F | 92% | 766.8 mmHg | 0.02 in | - | 0 W/m² | - |
| 1788151648 | 71° F | 92% | 766.9 mmHg | 0.09 in | - | 0 W/m² | - |
| 1788151343 | 71° F | 92% | 767 mmHg | 0.19 in | - | 0 W/m² | - |
| 1788151039 | 71° F | 92% | 767.2 mmHg | 0.38 in | - | 0 W/m² | - |
| 1788150734 | 71° F | 92% | 767.5 mmHg | 0.5 in | - | 0 W/m² | - |
| 1788150433 | 71° F | 92% | 767.5 mmHg | 0.64 in | - | 0 W/m² | - |
| 1788150128 | 71° F | 92% | 767.5 mmHg | 1.02 in | - | 0 W/m² | - |
| 1788149823 | 71° F | 92% | 767.5 mmHg | 1.42 in | - | 0 W/m² | - |
| 1788149523 | 71° F | 91% | 767.3 mmHg | 1.23 in | - | 0 W/m² | - |
| 1788149218 | 72° F | 91% | 767.3 mmHg | 0.4 in | - | 0 W/m² | - |
* Rain latest hour (hover to see other rain measurements)
** Current wind speed in m/s (hover to see current wind gust speed)